[[{"header":{"parameterUnit":"m.s-1","parameterCategory":1,"la1":30.2992,"la2":30.254,"lo1":-89.0895,"lo2":-89.0443,"dy":0.0025,"dx":0.0025,"nx":19,"ny":19,"refTime":"2026-04-15T03:00:00:Z","depth":0,"parameterNumber":2,"parameterNumberName":"U-component_of_WINDS"},"data":[0,0,0,-1.8755,-1.8757,-1.8847,-1.8847,-1.8962,-1.8963,0,0,0,0,0,0,0,0,0,0,0,-1.8728,-1.8728,-1.8755,-1.8757,-1.8847,-1.8847,-1.8961,-1.8963,0,0,0,0,0,0,0,0,0,0,0,-1.8727,-1.8728,-1.8729,-1.8758,-1.8847,-1.8847,-1.8961,-1.8894,0,0,0,0,0,0,0,0,0,0,-1.8807,-1.878,-1.8728,-1.8729,-1.8758,-1.8847,-1.8847,-1.8891,-1.8898,-1.8921,0,-1.894,0,-1.8953,-1.897,-1.8971,0,0,0,-1.8758,-1.8774,-1.8799,-1.8729,-1.8759,-1.8846,-1.8807,-1.8895,-1.8903,-1.8931,-1.8942,-1.8946,-1.8955,-1.8971,-1.8972,-1.9098,-1.9098,0,0,-1.8753,-1.8744,-1.8793,-1.8805,-1.879,-1.8804,-1.8809,-1.89,-1.8911,-1.8942,-1.8949,-1.8957,-1.8972,-1.8973,-1.9097,-1.9098,0,0,0,-1.8738,-1.874,-1.8763,-1.88,-1.8816,-1.8806,-1.8813,-1.8907,-1.8916,-1.895,-1.8958,-1.8972,-1.8974,-1.9096,-1.9097,-1.9114,0,0,0,-1.8735,-1.8731,-1.8761,-1.8756,-1.8814,-1.8863,-1.8818,-1.8909,-1.892,-1.8958,-1.8972,-1.8975,-1.9096,-1.9097,-1.9112,-1.9124,0,0,0,-1.8722,-1.873,-1.8742,-1.8755,-1.8793,-1.8861,-1.8875,-1.8912,-1.8925,-1.8971,-1.8975,-1.9096,-1.9097,-1.9111,-1.9121,-1.9154,0,0,0,-1.8705,-1.8757,-1.8743,-1.8803,-1.8792,-1.8871,-1.8874,-1.8934,-1.8975,-1.8973,-1.9096,-1.9097,-1.911,-1.912,-1.9152,-1.9179,-1.9189,0,0,-1.8765,-1.8763,-1.88,-1.879,-1.8869,-1.8858,-1.894,-1.8987,-1.9001,-1.9065,-1.9068,-1.9113,-1.9121,-1.9153,-1.9252,-1.926,0,0,0,-1.8815,-1.8841,-1.8865,-1.8903,-1.894,-1.8973,-1.9009,-1.9026,-1.9081,-1.9032,-1.9134,-1.9139,-1.9159,-1.9172,-1.9179,-1.9196,-1.9103,-1.9103,-1.9103,-1.8885,-1.8899,-1.8961,-1.8986,-1.9023,-1.906,-1.9092,-1.9122,-1.9126,-1.915,-1.9168,-1.9226,-1.9242,-1.9247,-1.9264,-1.9184,-1.9185,-1.9185,-1.9185,-1.8973,-1.9012,-1.9016,-1.9076,-1.9091,-1.9143,-1.9181,-1.9182,-1.9232,-1.9213,-1.9231,-1.9208,-1.9255,-1.9271,-1.9186,-1.9186,-1.9186,-1.9186,-1.9185,-1.9019,-1.904,-1.9061,-1.9118,-1.9161,-1.9185,-1.9233,-1.9246,-1.9258,-1.9276,-1.9297,-1.9297,-1.9297,-1.9285,-1.9285,-1.9285,-1.9286,-1.9286,-1.9286,-1.9059,-1.9082,-1.912,-1.9164,-1.919,-1.9227,-1.9265,-1.9291,-1.9324,-1.933,-1.933,-1.9331,-1.9257,-1.9238,-1.9289,-1.9288,-1.9288,-1.9288,-1.9288,-1.9142,-1.9125,-1.9185,-1.9211,-1.9264,-1.9305,-1.9321,-1.9374,-1.9398,-1.9422,-1.942,-1.9363,-1.9363,-1.9358,-1.9342,-1.9417,-1.9417,-1.9417,-1.9417,-1.918,-1.9182,-1.9245,-1.9287,-1.9329,-1.9349,-1.9417,-1.9447,-1.9476,-1.9492,-1.9483,-1.9463,-1.9457,-1.9461,-1.9453,-1.9438,-1.9536,-1.9536,-1.9536,-1.9232,-1.9238,-1.9292,-1.9319,-1.9361,-1.9398,-1.9462,-1.951,-1.9539,-1.9541,-1.9504,-1.9499,-1.9468,-1.9457,-1.9457,-1.9445,-1.9418,0,0]},{"header":{"parameterUnit":"m.s-1","parameterCategory":1,"la1":30.2992,"la2":30.254,"lo1":-89.0895,"lo2":-89.0443,"dy":0.0025,"dx":0.0025,"nx":19,"ny":19,"refTime":"2026-04-15T03:00:00:Z","depth":0,"parameterNumber":3,"parameterNumberName":"V-component_of_WINDS"},"data":[0,0,0,1.8406,1.8408,1.8459,1.8459,1.8529,1.8529,0,0,0,0,0,0,0,0,0,0,0,1.8395,1.8395,1.8406,1.8408,1.8459,1.8459,1.8529,1.8529,0,0,0,0,0,0,0,0,0,0,0,1.8394,1.8395,1.8396,1.8408,1.8459,1.8459,1.8528,1.8488,0,0,0,0,0,0,0,0,0,0,1.8438,1.843,1.8395,1.8396,1.8408,1.8459,1.8459,1.8486,1.8491,1.8508,0,1.8525,0,1.8528,1.8534,1.8535,0,0,0,1.8405,1.8427,1.8437,1.8396,1.8409,1.8459,1.8435,1.8489,1.8494,1.8514,1.8526,1.8528,1.853,1.8535,1.8535,1.8648,1.8648,0,0,1.8402,1.8405,1.8434,1.8441,1.8434,1.8433,1.8437,1.8492,1.8504,1.8526,1.853,1.8531,1.8535,1.8536,1.8647,1.8648,0,0,0,1.8396,1.8404,1.8413,1.8438,1.8447,1.8435,1.8439,1.8502,1.8505,1.853,1.8532,1.8536,1.8537,1.8646,1.8647,1.8685,0,0,0,1.8394,1.84,1.8412,1.8415,1.8446,1.8475,1.8448,1.8501,1.8507,1.8531,1.8536,1.8538,1.8646,1.8647,1.8683,1.8703,0,0,0,1.839,1.84,1.8408,1.8415,1.8437,1.8474,1.848,1.8502,1.8508,1.8535,1.8538,1.8645,1.8647,1.868,1.8699,1.8735,0,0,0,1.8387,1.844,1.8409,1.8468,1.8437,1.8498,1.848,1.8525,1.8552,1.8536,1.8646,1.8647,1.868,1.8696,1.8732,1.8767,1.8782,0,0,1.8455,1.8448,1.8483,1.8457,1.8525,1.8489,1.8562,1.8583,1.8581,1.8625,1.8628,1.8684,1.8699,1.8734,1.8858,1.887,0,0,0,1.8506,1.8531,1.8548,1.8575,1.8594,1.8611,1.8621,1.8629,1.8667,1.8605,1.8705,1.8714,1.8735,1.8752,1.8761,1.878,1.8655,1.8654,1.8654,1.8608,1.8605,1.8662,1.8666,1.8692,1.8703,1.8724,1.8737,1.8723,1.8747,1.8761,1.8837,1.8856,1.8863,1.8883,1.8778,1.8778,1.8778,1.8778,1.8709,1.8745,1.8729,1.8779,1.8775,1.8817,1.8829,1.8819,1.8858,1.8826,1.8844,1.8811,1.8876,1.8893,1.8781,1.878,1.878,1.878,1.8779,1.8777,1.8794,1.8804,1.8845,1.8876,1.8877,1.8915,1.8909,1.8904,1.8922,1.8936,1.8936,1.8936,1.8929,1.8929,1.8929,1.893,1.893,1.893,1.8845,1.8854,1.8888,1.8914,1.8931,1.8954,1.8965,1.8982,1.9,1.8992,1.8993,1.8979,1.8883,1.886,1.8934,1.8933,1.8933,1.8932,1.8932,1.8951,1.8927,1.8979,1.8997,1.9027,1.906,1.9052,1.9087,1.91,1.912,1.9102,1.9032,1.9023,1.9015,1.8997,1.9102,1.9102,1.9102,1.9102,1.901,1.9005,1.9059,1.9089,1.9116,1.9115,1.9175,1.9185,1.9191,1.9199,1.9182,1.9156,1.9149,1.9145,1.9134,1.9117,1.925,1.925,1.925,1.9077,1.9075,1.9127,1.9134,1.9157,1.9177,1.9234,1.9268,1.9269,1.9256,1.9206,1.9199,1.9157,1.9143,1.913,1.9113,1.9081,0,0]}]]